• In France
  • List of Countries
  • For 7 days
  • Water Temperature
  • Satellite Maps
  • Weather Map
  • Weather Widgets
  • user-avatar
    Login

    Hourly Weather Neiva

    Today, 16 December, Saturday

    Time Temperature Precipitation Wind Pressure Humidity
    00:00 +25°C° 0 mm 1 mps 720 mmHg 71%
    01:00 +25°C° 0 mm 1 mps 720 mmHg 71%
    02:00 +25°C° 0 mm 1 mps 720 mmHg 71%
    03:00 +24°C° 0 mm 1 mps 720 mmHg 72%
    04:00 +24°C° 0 mm 1 mps 720 mmHg 72%
    05:00 +25°C° 0 mm 1 mps 720 mmHg 71%
    06:00 +25°C° 0 mm 1 mps 721 mmHg 69%
    07:00 +26°C° 0 mm 1 mps 721 mmHg 68%
    08:00 +28°C° 0 mm 1 mps 721 mmHg 61%
    09:00 +31°C° 0 mm 1 mps 721 mmHg 54%
    10:00 +33°C° 0 mm 1 mps 721 mmHg 48%
    11:00 +34°C° 0 mm 1 mps 721 mmHg 46%
    12:00 +35°C° 0 mm 1 mps 720 mmHg 44%
    13:00 +36°C° 0 mm 1 mps 719 mmHg 42%
    14:00 +35°C° 0.1 mm 1 mps 719 mmHg 43%
    15:00 +35°C° 0.1 mm 1 mps 718 mmHg 45%
    16:00 +34°C° 0.1 mm 1 mps 717 mmHg 46%
    17:00 +32°C° 0 mm 1 mps 718 mmHg 53%
    18:00 +30°C° 0 mm 1 mps 718 mmHg 61%
    19:00 +27°C° 0 mm 1 mps 718 mmHg 68%
    20:00 +27°C° 0 mm 1 mps 718 mmHg 69%
    21:00 +26°C° 0 mm 1 mps 719 mmHg 70%
    22:00 +26°C° 0 mm 1 mps 720 mmHg 71%
    23:00 +26°C° 0 mm 1 mps 720 mmHg 71%

    Tomorrow, 17 December, Sunday

    Time Temperature Precipitation Wind Pressure Humidity
    00:00 +25°C° 0 mm 1 mps 719 mmHg 71%
    01:00 +25°C° 0 mm 1 mps 719 mmHg 72%
    02:00 +25°C° 0 mm 1 mps 719 mmHg 72%
    03:00 +25°C° 0 mm 1 mps 719 mmHg 72%
    04:00 +24°C° 0 mm 1 mps 719 mmHg 72%
    05:00 +25°C° 0 mm 1 mps 719 mmHg 71%
    06:00 +25°C° 0 mm 1 mps 720 mmHg 69%
    07:00 +26°C° 0 mm 1 mps 721 mmHg 67%
    08:00 +28°C° 0 mm 1 mps 721 mmHg 60%
    09:00 +31°C° 0 mm 1 mps 721 mmHg 52%
    10:00 +33°C° 0 mm 1 mps 721 mmHg 45%
    11:00 +34°C° 0 mm 1 mps 721 mmHg 42%
    12:00 +35°C° 0 mm 1 mps 720 mmHg 39%
    13:00 +36°C° 0 mm 1 mps 719 mmHg 37%
    14:00 +36°C° 0 mm 1 mps 719 mmHg 37%
    15:00 +35°C° 0 mm 1 mps 718 mmHg 37%
    16:00 +35°C° 0 mm 1 mps 717 mmHg 38%
    17:00 +32°C° 0 mm 1 mps 718 mmHg 44%
    18:00 +30°C° 0 mm 1 mps 718 mmHg 51%
    19:00 +27°C° 0 mm 2 mps 718 mmHg 58%
    20:00 +26°C° 0 mm 2 mps 719 mmHg 60%
    21:00 +26°C° 0 mm 2 mps 720 mmHg 61%
    22:00 +25°C° 0 mm 2 mps 720 mmHg 63%
    23:00 +25°C° 0 mm 2 mps 720 mmHg 64%

    Day after tomorrow, 18 December, Monday

    Time Temperature Precipitation Wind Pressure Humidity
    00:00 +24°C° 0 mm 1 mps 720 mmHg 64%
    01:00 +24°C° 0 mm 1 mps 720 mmHg 65%
    02:00 +24°C° 0 mm 1 mps 720 mmHg 65%
    03:00 +24°C° 0 mm 1 mps 719 mmHg 65%
    04:00 +23°C° 0 mm 1 mps 719 mmHg 65%
    05:00 +24°C° 0 mm 1 mps 720 mmHg 63%
    06:00 +24°C° 0 mm 1 mps 720 mmHg 61%
    07:00 +25°C° 0 mm 1 mps 721 mmHg 59%
    08:00 +28°C° 0 mm 1 mps 721 mmHg 50%
    09:00 +31°C° 0 mm 1 mps 721 mmHg 41%
    10:00 +34°C° 0 mm 1 mps 722 mmHg 32%
    11:00 +35°C° 0 mm 1 mps 721 mmHg 30%
    12:00 +37°C° 0 mm 2 mps 720 mmHg 27%
    13:00 +38°C° 0 mm 2 mps 720 mmHg 25%
    14:00 +37°C° 0 mm 2 mps 719 mmHg 26%
    15:00 +36°C° 0 mm 1 mps 718 mmHg 26%
    16:00 +35°C° 0 mm 1 mps 717 mmHg 27%
    17:00 +32°C° 0 mm 2 mps 718 mmHg 34%
    18:00 +30°C° 0 mm 2 mps 718 mmHg 40%
    19:00 +27°C° 0 mm 2 mps 719 mmHg 46%
    20:00 +26°C° 0 mm 2 mps 720 mmHg 47%
    21:00 +25°C° 0 mm 2 mps 721 mmHg 48%
    22:00 +25°C° 0 mm 2 mps 722 mmHg 49%
    23:00 +24°C° 0 mm 2 mps 721 mmHg 50%

    19 December, Tuesday

    Time Temperature Precipitation Wind Pressure Humidity
    00:00 +24°C° 0 mm 2 mps 721 mmHg 51%
    01:00 +23°C° 0 mm 2 mps 721 mmHg 52%
    02:00 +23°C° 0 mm 2 mps 720 mmHg 52%
    03:00 +23°C° 0 mm 2 mps 720 mmHg 53%
    04:00 +23°C° 0 mm 1 mps 720 mmHg 53%
    05:00 +23°C° 0 mm 1 mps 720 mmHg 53%
    06:00 +24°C° 0 mm 1 mps 721 mmHg 52%
    07:00 +24°C° 0 mm 1 mps 721 mmHg 52%
    08:00 +27°C° 0 mm 1 mps 721 mmHg 45%
    09:00 +30°C° 0 mm 1 mps 722 mmHg 38%
    10:00 +33°C° 0 mm 1 mps 722 mmHg 31%
    11:00 +35°C° 0 mm 2 mps 721 mmHg 29%
    12:00 +36°C° 0 mm 2 mps 720 mmHg 27%
    13:00 +37°C° 0 mm 2 mps 719 mmHg 25%
    14:00 +37°C° 0 mm 2 mps 719 mmHg 27%
    15:00 +37°C° 0 mm 2 mps 718 mmHg 28%
    16:00 +35°C° 0 mm 1 mps 717 mmHg 29%
    17:00 +32°C° 0 mm 1 mps 718 mmHg 36%
    18:00 +29°C° 0 mm 2 mps 718 mmHg 44%
    19:00 +27°C° 0 mm 2 mps 719 mmHg 51%
    20:00 +26°C° 0 mm 2 mps 720 mmHg 52%
    21:00 +25°C° 0 mm 2 mps 720 mmHg 54%
    22:00 +25°C° 0 mm 2 mps 721 mmHg 55%
    23:00 +24°C° 0 mm 2 mps 721 mmHg 55%

    20 December, Wednesday

    Time Temperature Precipitation Wind Pressure Humidity
    00:00 +24°C° 0 mm 1 mps 720 mmHg 56%
    01:00 +24°C° 0 mm 1 mps 720 mmHg 56%
    02:00 +24°C° 0 mm 1 mps 720 mmHg 56%
    03:00 +23°C° 0 mm 1 mps 720 mmHg 57%
    04:00 +23°C° 0 mm 1 mps 719 mmHg 57%
    05:00 +24°C° 0 mm 1 mps 720 mmHg 57%
    06:00 +24°C° 0 mm 1 mps 720 mmHg 56%
    07:00 +25°C° 0 mm 1 mps 721 mmHg 56%
    08:00 +27°C° 0 mm 1 mps 721 mmHg 49%
    09:00 +30°C° 0 mm 1 mps 721 mmHg 43%
    10:00 +32°C° 0 mm 1 mps 721 mmHg 36%
    11:00 +33°C° 0 mm 1 mps 721 mmHg 34%
    12:00 +34°C° 0 mm 1 mps 720 mmHg 33%
    13:00 +37°C° 0 mm 2 mps 719 mmHg 31%
    14:00 +35°C° 0 mm 1 mps 718 mmHg 32%
    15:00 +35°C° 0 mm 1 mps 717 mmHg 33%
    16:00 +34°C° 0 mm 1 mps 717 mmHg 35%
    17:00 +32°C° 0 mm 1 mps 717 mmHg 41%
    18:00 +29°C° 0 mm 1 mps 718 mmHg 48%
    19:00 +26°C° 0 mm 1 mps 718 mmHg 55%
    20:00 +26°C° 0 mm 1 mps 719 mmHg 57%
    21:00 +25°C° 0 mm 1 mps 719 mmHg 58%
    22:00 +25°C° 0 mm 1 mps 720 mmHg 60%
    23:00 +25°C° 0 mm 1 mps 719 mmHg 60%

    21 December, Thursday

    Time Temperature Precipitation Wind Pressure Humidity
    00:00 +24°C° 0 mm 1 mps 719 mmHg 61%
    01:00 +24°C° 0 mm 1 mps 719 mmHg 62%
    02:00 +24°C° 0 mm 1 mps 719 mmHg 62%
    03:00 +23°C° 0 mm 1 mps 719 mmHg 63%
    04:00 +23°C° 0 mm 1 mps 719 mmHg 63%
    05:00 +24°C° 0 mm 1 mps 719 mmHg 62%
    06:00 +24°C° 0 mm 1 mps 720 mmHg 61%
    07:00 +25°C° 0 mm 1 mps 720 mmHg 59%
    08:00 +28°C° 0 mm 1 mps 721 mmHg 52%
    09:00 +30°C° 0 mm 1 mps 721 mmHg 45%
    10:00 +33°C° 0 mm 1 mps 721 mmHg 38%
    11:00 +35°C° 0 mm 2 mps 720 mmHg 37%
    12:00 +36°C° 0 mm 2 mps 719 mmHg 35%
    13:00 +37°C° 0 mm 2 mps 718 mmHg 34%
    14:00 +36°C° 0 mm 2 mps 718 mmHg 35%
    15:00 +36°C° 0 mm 2 mps 717 mmHg 36%
    16:00 +36°C° 0 mm 2 mps 716 mmHg 37%
    17:00 +32°C° 0 mm 1 mps 717 mmHg 44%
    18:00 +30°C° 0 mm 1 mps 717 mmHg 51%
    19:00 +27°C° 0 mm 1 mps 718 mmHg 59%
    20:00 +26°C° 0 mm 1 mps 718 mmHg 60%
    21:00 +26°C° 0 mm 1 mps 719 mmHg 62%
    22:00 +25°C° 0 mm 1 mps 719 mmHg 63%
    23:00 +25°C° 0 mm 1 mps 719 mmHg 64%
    Show more